TimeEST,TemperatureF,Dew PointF,Humidity,Sea Level PressureIn,VisibilityMPH,Wind Direction,Wind SpeedMPH,Gust SpeedMPH,PrecipitationIn,Events,Conditions,WindDirDegrees,DateUTC
12:51 AM,21.0,10.9,65,30.30,10.0,NE,4.6,-,N/A,,Clear,40,2013-02-21 05:51:00
1:51 AM,19.9,10.9,68,30.30,10.0,Calm,Calm,-,N/A,,Clear,0,2013-02-21 06:51:00
2:51 AM,21.0,10.9,65,30.31,10.0,Calm,Calm,-,N/A,,Clear,0,2013-02-21 07:51:00
3:51 AM,19.0,12.0,74,30.30,10.0,Calm,Calm,-,N/A,,Clear,0,2013-02-21 08:51:00
4:51 AM,18.0,10.9,74,30.31,10.0,Calm,Calm,-,N/A,,Clear,0,2013-02-21 09:51:00
5:51 AM,16.0,12.0,84,30.32,10.0,Calm,Calm,-,N/A,,Clear,0,2013-02-21 10:51:00
6:51 AM,15.8,10.4,79,30.31,10.0,Calm,Calm,-,N/A,,Clear,0,2013-02-21 11:51:00
7:51 AM,17.1,12.9,84,30.36,10.0,Calm,Calm,-,N/A,,Clear,0,2013-02-21 12:51:00
8:51 AM,23.0,15.1,72,30.38,10.0,Calm,Calm,-,N/A,,Clear,0,2013-02-21 13:51:00
9:51 AM,26.1,15.1,63,30.38,10.0,Variable,5.8,-,N/A,,Partly Cloudy,0,2013-02-21 14:51:00
10:51 AM,28.0,14.0,56,30.35,10.0,Variable,6.9,-,N/A,,Clear,0,2013-02-21 15:51:00
11:51 AM,30.0,15.1,54,30.34,10.0,NNE,8.1,-,N/A,,Clear,20,2013-02-21 16:51:00
12:51 PM,32.0,15.1,50,30.30,10.0,NE,5.8,-,0.00,,Clear,50,2013-02-21 17:51:00
1:51 PM,34.0,16.0,48,30.25,10.0,NNE,8.1,-,N/A,,Clear,20,2013-02-21 18:51:00
2:51 PM,35.1,16.0,46,30.25,10.0,Variable,4.6,-,N/A,,Clear,0,2013-02-21 19:51:00
3:51 PM,36.0,18.0,48,30.24,10.0,NNE,6.9,-,N/A,,Clear,20,2013-02-21 20:51:00
4:51 PM,34.0,17.1,50,30.22,10.0,NE,11.5,-,N/A,,Clear,50,2013-02-21 21:51:00
5:51 PM,32.0,17.1,54,30.23,10.0,NE,12.7,-,N/A,,Clear,50,2013-02-21 22:51:00
6:51 PM,30.9,17.1,57,30.24,10.0,NE,9.2,-,N/A,,Clear,40,2013-02-21 23:51:00
7:51 PM,30.9,17.1,57,30.21,10.0,ENE,10.4,-,N/A,,Clear,70,2013-02-22 00:51:00
8:51 PM,30.9,17.1,57,30.19,10.0,ENE,5.8,-,N/A,,Overcast,60,2013-02-22 01:51:00
9:51 PM,30.9,17.1,57,30.22,10.0,NNW,4.6,-,N/A,,Overcast,340,2013-02-22 02:51:00
10:51 PM,30.9,17.1,57,30.20,10.0,Calm,Calm,-,N/A,,Overcast,0,2013-02-22 03:51:00
11:51 PM,30.9,17.1,57,30.19,10.0,East,5.8,-,N/A,,Overcast,100,2013-02-22 04:51:00